Vorticity
6 6 4 5 6 11 4 9 15 2 6 4 5 6 8 2 11 5 11 11 8 6 5 4 4 5 4 3 4 4 3 4 6 6 5 5 6 6 3 7 8 6 6
12 6 1 -2 4 9 9 7 13 11 2 5 4 4 9 9 7 8 8 10 10 8 5 3 4 4 4 3 5 3 3 4 4 4 5 8 7 4 8 9 6 6 7
10 11 9 4 3 9 9 5 5 12 10 3 3 4 4 12 7 8 6 8 7 10 4 2 2 2 4 4 4 4 4 4 4 6 8 7 3 6 9 7 6 7 7
10 10 10 10 5 9 7 10 12 6 11 10 7 4 7 11 5 8 8 5 8 11 7 2 2 2 4 4 4 4 4 5 4 9 7 5 7 7 6 9 7 7 7
6 14 10 9 9 6 6 11 10 7 4 12 5 4 7 10 10 7 11 8 9 10 11 10 6 5 6 4 4 5 4 4 9 7 5 6 6 6 6 6 9 9 12
10 8 18 8 10 6 4 6 12 9 3 7 13 3 4 9 10 5 7 8 8 10 7 7 7 7 4 4 6 5 7 10 6 5 5 5 6 7 8 7 6 9 4
12 8 10 17 8 6 4 5 12 8 6 3 14 7 5 8 8 5 4 8 7 6 5 5 5 5 6 7 7 7 8 4 5 4 5 6 7 8 6 9 8 4 4
25 15 10 18 9 5 7 2 11 9 8 4 12 9 6 10 8 6 6 7 10 12 7 7 7 8 8 8 7 7 4 4 4 5 6 8 8 9 10 3 4 11 9
24 23 16 13 16 6 6 7 7 8 8 4 8 7 6 9 9 9 8 8 8 8 8 8 9 8 9 7 5 4 5 4 5 7 8 7 9 6 1 10 6 9 9
42 35 12 11 23 6 7 6 7 6 5 4 7 5 7 8 7 9 6 6 5 6 8 10 10 8 6 4 4 4 5 6 7 7 7 10 5 4 9 5 11 9 10
42 35 15 12 17 12 8 10 9 10 7 5 7 7 7 7 10 7 6 5 4 6 9 11 8 5 4 4 4 4 6 8 7 8 9 4 8 5 9 10 10 9 6
29 28 16 11 14 17 12 11 10 9 7 4 5 6 6 7 6 4 5 6 3 7 12 7 5 4 3 4 5 7 8 7 7 8 4 8 4 10 9 10 7 4 3
47 17 15 8 16 15 11 13 9 8 5 5 6 5 7 6 3 3 5 6 4 12 8 5 3 4 4 6 7 7 7 8 5 7 6 6 11 9 9 6 3 4 2
22 25 12 10 13 16 12 10 6 7 6 5 4 5 7 6 5 6 5 5 12 8 5 3 4 5 7 7 7 5 9 5 8 4 9 9 9 8 4 3 4 2 2
16 18 9 13 10 14 11 6 5 8 7 5 3 5 9 9 7 6 5 13 8 4 4 5 5 7 6 6 6 6 6 7 4 10 9 8 7 4 4 3 3 2 2
17 11 9 11 10 12 9 4 8 9 6 5 5 8 9 8 7 10 13 6 4 6 4 5 8 7 4 8 5 9 5 6 9 10 8 5 4 4 3 3 3 2 4
9 17 9 8 8 11 12 12 9 6 4 4 10 9 10 9 13 8 4 5 5 5 8 7 6 5 7 7 8 4 9 9 8 8 5 5 5 3 2 4 3 5 19
13 14 14 15 15 14 13 9 5 7 12 14 11 13 13 8 5 5 5 8 8 8 6 4 8 6 10 5 5 8 11 8 6 6 5 3 1 4 3 5 5 21 45
8 9 9 8 8 7 8 12 14 13 12 12 10 7 7 4 5 11 7 7 6 4 7 7 9 8 3 9 8 10 8 6 7 4 0 3 3 5 3 6 22 59 37
6 8 13 15 15 11 10 10 10 8 8 7 5 5 10 10 8 6 6 4 6 8 9 8 5 6 9 11 8 7 6 5 3 2 3 2 4 3 9 38 55 35 26
8 8 7 6 5 4 6 13 9 4 6 10 9 7 7 6 5 5 7 9 10 8 7 5 10 6 10 9 8 7 3 2 3 4 4 1 2 17 49 43 32 23 12
16 22 11 9 8 12 11 9 8 6 7 8 6 5 6 6 8 9 9 7 7 7 9 7 8 10 10 9 5 3 2 3 3 4 4 4 33 53 35 34 18 10 14
-12 1 1 1 14 10 9 7 7 7 6 7 8 9 10 9 8 6 6 7 10 7 6 8 12 10 6 3 2 4 3 4 5 2 8 53 43 30 38 12 12 12 10
11 4 9 6 4 6 8 9 10 9 10 9 7 5 5 6 6 7 11 8 7 7 12 10 9 4 2 4 3 4 5 6 3 19 58 34 36 29 10 12 8 9 8
8 7 9 12 14 9 7 8 7 6 7 7 7 7 7 7 12 8 6 8 9 12 11 8 4 4 4 3 1 4 0 3 28 51 34 42 19 12 10 9 9 13 19
9 15 13 8 3 5 6 6 5 6 7 7 7 10 14 8 7 8 8 12 10 10 6 4 4 3 4 2 2 0 9 37 42 37 43 14 12 8 8 12 19 21 20
Height
5729 5732 5735 5739 5742 5744 5747 5750 5752 5754 5754 5756 5758 5759 5761 5762 5761 5761 5762 5763 5763 5764 5764 5763 5763 5762 5761 5760 5759 5757 5755 5753 5751 5747 5744 5741 5738 5735 5730 5726 5723 5719 5716
5716 5720 5723 5728 5732 5736 5737 5741 5744 5745 5747 5749 5750 5752 5754 5755 5754 5754 5756 5757 5757 5756 5757 5756 5755 5755 5753 5752 5751 5749 5747 5745 5742 5739 5736 5732 5729 5724 5720 5715 5711 5708 5704
5705 5708 5711 5716 5721 5725 5729 5731 5735 5736 5737 5740 5742 5745 5746 5747 5748 5748 5749 5750 5749 5748 5749 5749 5748 5747 5746 5744 5742 5740 5738 5736 5733 5730 5727 5723 5720 5716 5712 5706 5701 5695 5690
5689 5693 5697 5703 5708 5714 5718 5720 5726 5729 5729 5731 5734 5736 5738 5739 5740 5740 5741 5742 5742 5741 5741 5740 5740 5739 5737 5736 5734 5732 5729 5726 5723 5721 5716 5712 5708 5705 5704 5699 5692 5686 5680
5672 5676 5682 5689 5695 5700 5706 5710 5715 5719 5721 5723 5726 5728 5730 5731 5732 5732 5733 5734 5734 5734 5733 5732 5731 5730 5728 5727 5725 5722 5719 5716 5713 5709 5705 5701 5697 5692 5688 5685 5680 5674 5668
5655 5662 5667 5673 5681 5688 5694 5699 5706 5710 5713 5716 5718 5721 5722 5723 5724 5725 5726 5726 5726 5726 5725 5724 5722 5722 5720 5718 5716 5712 5709 5706 5702 5698 5694 5689 5685 5679 5673 5669 5664 5660 5655
5639 5646 5653 5661 5669 5678 5684 5690 5697 5701 5705 5708 5711 5713 5715 5716 5716 5718 5719 5719 5718 5718 5717 5715 5714 5713 5711 5708 5705 5702 5698 5695 5690 5686 5682 5676 5671 5665 5659 5653 5648 5642 5637
5621 5631 5639 5646 5657 5667 5674 5681 5687 5692 5696 5700 5702 5705 5708 5709 5710 5711 5712 5712 5711 5710 5708 5707 5705 5703 5701 5698 5694 5691 5687 5683 5679 5674 5668 5662 5657 5651 5645 5639 5632 5627 5619
5608 5618 5626 5636 5643 5653 5663 5671 5677 5682 5686 5691 5694 5697 5700 5702 5703 5704 5704 5704 5703 5702 5700 5698 5696 5693 5690 5687 5684 5680 5676 5671 5666 5661 5655 5649 5643 5636 5630 5623 5615 5608 5603
5594 5602 5613 5623 5632 5642 5651 5660 5667 5672 5677 5682 5686 5689 5692 5694 5695 5696 5696 5696 5695 5694 5692 5689 5686 5683 5680 5677 5673 5669 5664 5659 5654 5648 5642 5636 5629 5622 5615 5607 5598 5590 5582
5579 5588 5599 5611 5621 5632 5643 5652 5658 5663 5668 5674 5679 5682 5685 5687 5688 5688 5688 5688 5687 5685 5683 5680 5677 5673 5671 5667 5663 5658 5653 5648 5642 5635 5629 5622 5615 5606 5598 5589 5581 5572 5563
5565 5576 5586 5600 5612 5624 5635 5644 5650 5655 5661 5667 5671 5676 5678 5680 5680 5681 5681 5680 5679 5677 5674 5671 5667 5664 5661 5657 5652 5647 5642 5636 5629 5622 5614 5607 5599 5589 5581 5572 5563 5553 5543
5554 5566 5578 5592 5606 5618 5627 5636 5643 5649 5655 5660 5665 5669 5671 5672 5673 5674 5673 5672 5670 5668 5665 5662 5658 5655 5651 5646 5641 5636 5630 5623 5615 5608 5600 5591 5582 5573 5564 5554 5545 5535 5523
5549 5560 5574 5588 5601 5612 5621 5629 5637 5643 5650 5654 5658 5661 5663 5665 5666 5666 5665 5664 5661 5659 5656 5653 5649 5645 5641 5635 5630 5624 5617 5609 5601 5592 5584 5575 5565 5556 5546 5536 5525 5513 5499
5550 5559 5573 5586 5599 5609 5617 5624 5632 5639 5645 5649 5652 5655 5657 5658 5658 5658 5657 5655 5653 5651 5647 5644 5640 5635 5630 5624 5618 5611 5603 5595 5586 5577 5568 5559 5550 5540 5529 5517 5504 5488 5474
5554 5563 5575 5587 5598 5607 5615 5622 5628 5635 5639 5643 5647 5649 5650 5651 5651 5650 5649 5647 5645 5642 5638 5635 5630 5625 5619 5612 5605 5597 5589 5581 5572 5563 5553 5544 5534 5524 5511 5497 5481 5464 5446
5561 5569 5579 5589 5597 5606 5613 5620 5626 5631 5636 5639 5642 5643 5644 5644 5643 5642 5641 5639 5636 5633 5630 5625 5620 5614 5607 5600 5592 5584 5576 5567 5558 5548 5538 5528 5517 5505 5491 5476 5460 5441 5420
5569 5576 5584 5591 5598 5606 5612 5619 5625 5629 5632 5634 5636 5637 5637 5636 5636 5635 5634 5631 5628 5624 5619 5614 5608 5602 5595 5587 5579 5571 5562 5553 5543 5533 5522 5510 5497 5483 5469 5455 5438 5418 5398
5576 5582 5588 5595 5601 5607 5613 5618 5621 5624 5626 5629 5630 5631 5631 5630 5629 5627 5625 5622 5618 5614 5609 5603 5596 5590 5582 5574 5566 5558 5548 5539 5530 5518 5505 5492 5478 5462 5445 5429 5413 5397 5379
5582 5587 5593 5597 5602 5606 5610 5614 5618 5620 5623 5625 5625 5625 5624 5623 5621 5619 5616 5613 5608 5603 5598 5591 5585 5578 5570 5562 5554 5544 5535 5526 5516 5503 5487 5472 5457 5439 5420 5403 5390 5381 5369
5585 5589 5593 5597 5601 5605 5609 5612 5615 5617 5618 5618 5618 5618 5617 5616 5613 5611 5607 5603 5598 5593 5587 5581 5574 5566 5559 5550 5542 5532 5522 5511 5499 5484 5469 5452 5434 5416 5399 5385 5375 5368 5362
5587 5591 5595 5598 5603 5605 5606 5607 5610 5612 5613 5613 5613 5612 5611 5609 5605 5602 5598 5594 5589 5583 5576 5569 5561 5554 5546 5537 5528 5518 5505 5493 5479 5463 5447 5429 5412 5394 5383 5374 5366 5359 5352
5592 5591 5594 5597 5600 5602 5604 5605 5607 5609 5609 5608 5607 5606 5604 5601 5597 5594 5589 5584 5578 5572 5565 5559 5551 5543 5534 5525 5515 5504 5490 5476 5460 5443 5424 5406 5390 5379 5370 5364 5358 5351 5343
5593 5595 5596 5598 5599 5600 5602 5604 5605 5605 5604 5603 5602 5599 5597 5593 5589 5584 5579 5574 5568 5562 5555 5548 5540 5532 5522 5512 5502 5490 5475 5460 5442 5423 5403 5388 5377 5370 5364 5357 5350 5342 5335
5592 5594 5596 5597 5599 5600 5601 5601 5601 5601 5599 5598 5595 5592 5589 5584 5580 5575 5569 5564 5558 5551 5544 5537 5529 5520 5510 5499 5486 5471 5454 5438 5419 5401 5388 5377 5370 5364 5357 5350 5342 5334 5325
5592 5593 5595 5596 5597 5598 5599 5598 5597 5595 5593 5590 5588 5584 5580 5575 5570 5565 5560 5554 5547 5540 5533 5524 5515 5505 5493 5481 5467 5451 5433 5416 5400 5388 5379 5372 5366 5360 5352 5343 5334 5326 5318